DW5678 Kavala GR current weather conditions

sailwx.info

Wind from 045

Air temperature 7.8° C
Dewpoint 3.8° C

Last reported at 2018-Feb-24 11:08 UTC.
Time now 2018-Feb-24 12:13 UTC

Location: N 40°56' E 024°24'.
View on Google Maps.

See reports from other nearby stations

  
Tides and Currents Weather Stations Pressure Air Temp Water Temp Dewpoint Dewpoint Depression Visibility Wind Speed Wind Dir Waves Ship Positions
date/time (UTC)wind fromknots sea level pressurealtimeterstation pressurevisibilityair tempwater tempwave heightnotes
2018-Feb-24 11:08 045 7.8
2018-Feb-24 10:58 107 0 gusting 2 7.2
2018-Feb-24 10:48 044 0 gusting 2 7.8
2018-Feb-24 10:38 047 7.2
2018-Feb-24 10:28 080 7.2
2018-Feb-24 10:18 039 7.2
2018-Feb-24 10:08 096 7.2
2018-Feb-24 09:58 100 0 gusting 5 7.2
2018-Feb-24 09:48 135 0 gusting 6 7.2
2018-Feb-24 09:38 116 0 gusting 6 7.2
2018-Feb-24 09:28 148 1 gusting 5 7.2
2018-Feb-24 09:18 080 0 gusting 4 7.2
2018-Feb-24 09:08 065 0 gusting 4 7.2
2018-Feb-24 08:58 042 1 gusting 5 7.2
2018-Feb-24 08:48 047 0 gusting 4 7.2
2018-Feb-24 08:38 061 6.7
2018-Feb-24 08:28 095 1 gusting 6 6.7
2018-Feb-24 08:18 057 1 gusting 6 6.7
2018-Feb-24 08:08 062 1 gusting 6 6.7
2018-Feb-24 07:58 037 0 gusting 4 6.7
2018-Feb-24 07:48 036 1 gusting 5 6.7
2018-Feb-24 07:38 051 0 gusting 6 6.7
2018-Feb-24 07:28 038 1 gusting 6 6.7
2018-Feb-24 07:18 055 4 gusting 7 6.7
2018-Feb-24 07:08 048 4 gusting 6 6.7
2018-Feb-24 06:58 065 2 gusting 6 6.7
2018-Feb-24 06:48 028 0 gusting 5 6.7
2018-Feb-24 06:38 061 0 gusting 6 6.7
2018-Feb-24 06:28 085 1 gusting 6 6.7
2018-Feb-24 06:18 046 2 gusting 8 6.7
2018-Feb-24 06:08 047 0 gusting 5 6.7
2018-Feb-24 05:58 010 0 gusting 5 6.7
2018-Feb-24 05:48 060 1 gusting 2 6.7
2018-Feb-24 05:38 045 6.7
2018-Feb-24 05:28 045 6.7
2018-Feb-24 05:18 045 0 gusting 4 6.7
2018-Feb-24 05:08 047 2 gusting 6 6.7
2018-Feb-24 04:58 039 1 gusting 7 6.7
2018-Feb-24 04:48 025 2 gusting 11 6.7
2018-Feb-24 04:38 045 4 gusting 6 6.7
2018-Feb-24 04:28 041 1 gusting 7 6.7
2018-Feb-24 04:18 046 2 gusting 8 6.7
2018-Feb-24 04:08 049 2 gusting 6 6.7
2018-Feb-24 03:58 057 2 gusting 7 6.7
2018-Feb-24 03:48 030 1 gusting 4 6.7
2018-Feb-24 03:38 030 0 gusting 4 6.7
2018-Feb-24 03:28 042 1 gusting 4 6.7
2018-Feb-24 03:18 042 0 gusting 5 6.7
2018-Feb-24 03:08 062 7.2
2018-Feb-23 21:48 066 0 gusting 6 7.2
2018-Feb-23 21:38 128 1 gusting 6 7.2
2018-Feb-23 21:28 111 0 gusting 5 7.8
2018-Feb-23 21:18 050 1 gusting 6 7.8
2018-Feb-23 21:08 030 2 gusting 6 7.8
2018-Feb-23 20:58 048 6 gusting 10 7.8
2018-Feb-23 20:48 068 2 gusting 6 7.8
2018-Feb-23 20:38 031 2 gusting 10 7.8
2018-Feb-23 20:28 059 2 gusting 8 7.8
2018-Feb-23 20:18 052 4 gusting 10 7.8
2018-Feb-23 19:58 030 2 gusting 10 7.8
2018-Feb-23 19:48 088 2 gusting 8 7.8
2018-Feb-23 19:38 061 4 gusting 11 7.8
2018-Feb-23 19:28 092 2 gusting 10 7.8
2018-Feb-23 19:18 059 1 gusting 6 8.3
2018-Feb-23 19:08 048 1 gusting 7 8.3
2018-Feb-23 18:58 076 4 gusting 8 8.3
2018-Feb-23 18:48 039 4 gusting 8 8.3
2018-Feb-23 18:38 043 2 gusting 10 8.3
2018-Feb-23 18:28 061 4 gusting 10 8.3
2018-Feb-23 18:18 071 2 gusting 7 8.3
2018-Feb-23 18:08 076 3 gusting 8 8.3
2018-Feb-23 17:58 067 4 gusting 10 8.3
2018-Feb-23 17:48 050 4 gusting 12 8.3
2018-Feb-23 17:38 025 4 gusting 8 8.9
2018-Feb-23 17:28 067 1 gusting 6 8.9
2018-Feb-23 17:18 089 2 gusting 6 8.9
2018-Feb-23 17:08 049 1 gusting 7 8.9
2018-Feb-23 16:58 054 2 gusting 12 8.9
2018-Feb-23 16:48 031 1 gusting 11 9.4
2018-Feb-23 16:38 065 3 gusting 11 9.4
2018-Feb-23 16:28 056 2 gusting 10 9.4
2018-Feb-23 16:18 091 3 gusting 12 9.4
2018-Feb-23 16:08 044 3 gusting 11 9.4
2018-Feb-23 15:58 077 2 gusting 6 10.0
2018-Feb-23 15:48 045 2 gusting 8 10.0
2018-Feb-23 15:38 057 5 gusting 8 10.0
2018-Feb-23 15:28 058 2 gusting 7 10.0
2018-Feb-23 15:18 098 1 gusting 6 10.0
2018-Feb-23 15:08 128 2 gusting 8 10.0
2018-Feb-23 14:58 107 1 gusting 8 10.0
2018-Feb-23 14:48 057 3 gusting 7 10.0
2018-Feb-23 14:38 097 1 gusting 6 10.0
2018-Feb-23 14:28 290 4 gusting 8 10.0
2018-Feb-23 14:18 130 2 gusting 8 10.6
2018-Feb-23 14:08 093 3 gusting 8 10.6
2018-Feb-23 13:58 060 2 gusting 7 10.6
2018-Feb-23 13:48 159 2 gusting 6 10.6
2018-Feb-23 13:38 124 1 gusting 7 10.6
2018-Feb-23 13:28 067 3 gusting 7 10.6
2018-Feb-23 13:18 118 3 gusting 7 10.6
2018-Feb-23 13:08 034 1 gusting 8 10.6
2018-Feb-23 12:58 082 1 gusting 11 10.6
2018-Feb-23 12:48 115 3 gusting 10 10.6
2018-Feb-23 12:38 084 1 gusting 6 10.6
2018-Feb-23 12:28 049 3 gusting 7 10.6
2018-Feb-23 12:18 064 2 gusting 10 10.0
2018-Feb-23 12:08 161 2 gusting 8 10.0
2018-Feb-23 11:58 153 5 gusting 8 10.0
2018-Feb-23 11:48 137 2 gusting 8 10.6
2018-Feb-23 11:38 125 0 gusting 6 10.0
2018-Feb-23 11:28 118 1 gusting 6 10.0
2018-Feb-23 11:18 134 2 gusting 6 9.4
2018-Feb-23 11:08 098 2 gusting 10 9.4
2018-Feb-23 10:58 044 2 gusting 7 9.4
2018-Feb-23 10:48 143 4 gusting 8 9.4
2018-Feb-23 10:38 054 1 gusting 8 9.4
2018-Feb-23 10:28 117 1 gusting 7 9.4
2018-Feb-23 10:18 014 4 gusting 8 9.4
2018-Feb-23 10:08 095 5 gusting 7 9.4
2018-Feb-23 09:58 107 3 gusting 6 9.4
2018-Feb-23 09:48 146 0 gusting 4 8.9
2018-Feb-23 09:38 139 1 gusting 6 8.9
2018-Feb-23 09:28 061 1 gusting 6 8.9
2018-Feb-23 09:18 131 0 gusting 6 8.9
2018-Feb-23 09:08 127 1 gusting 5 8.9
2018-Feb-23 08:58 057 0 gusting 5 8.3
2018-Feb-23 08:48 038 0 gusting 4 8.3
2018-Feb-23 08:38 024 0 gusting 4 8.3
2018-Feb-23 08:28 069 1 gusting 5 7.8
2018-Feb-23 08:18 073 2 gusting 6 7.8
2018-Feb-23 08:08 096 0 gusting 2 7.8
2018-Feb-23 07:58 042 1 gusting 5 7.8
2018-Feb-23 07:48 104 0 gusting 5 7.2
2018-Feb-23 07:38 119 0 gusting 5 7.2
2018-Feb-23 07:28 075 0 gusting 5 7.2
2018-Feb-23 07:18 051 2 gusting 5 7.2
2018-Feb-23 07:08 073 0 gusting 2 7.2
2018-Feb-23 06:58 079 0 gusting 2 7.2
2018-Feb-23 06:48 129 1 gusting 6 7.8
2018-Feb-23 06:38 064 1 gusting 6 7.8
2018-Feb-23 06:28 064 1 gusting 6 7.2
2018-Feb-23 06:18 038 0 gusting 2 6.7
2018-Feb-23 06:08 038 6.7
2018-Feb-23 05:58 038 6.7
2018-Feb-23 05:48 038 6.7
2018-Feb-23 05:38 038 6.7
2018-Feb-23 05:28 038 6.1
2018-Feb-23 05:18 038 6.7
2018-Feb-23 05:08 038 6.1
2018-Feb-23 04:58 038 6.1
2018-Feb-23 04:48 038 6.1
2018-Feb-23 04:38 038 0 gusting 2 6.1
2018-Feb-23 04:28 038 6.7
2018-Feb-23 04:18 038 0 gusting 2 6.7
2018-Feb-23 04:08 038 0 gusting 2 6.7
2018-Feb-23 03:58 037 6.7
2018-Feb-23 03:48 037 6.7
2018-Feb-23 03:38 037 0 gusting 1 6.7
2018-Feb-23 03:28 037 6.1
2018-Feb-23 03:18 040 0 gusting 2 6.1
2018-Feb-23 03:08 040 0 gusting 2 6.1
2018-Feb-23 02:58 165 6.1
2018-Feb-23 02:48 165 6.7
2018-Feb-23 02:38 165 6.7
2018-Feb-23 02:28 039 7.2
2018-Feb-23 02:18 046 4 gusting 8 7.2
2018-Feb-23 02:08 067 4 gusting 7 6.7
2018-Feb-23 01:58 047 1 gusting 4 6.1
2018-Feb-23 01:48 031 1 gusting 5 6.1
2018-Feb-23 01:38 032 2 gusting 6 6.1
2018-Feb-23 01:28 036 2 gusting 5 6.1
2018-Feb-23 01:18 042 2 gusting 5 6.7
2018-Feb-23 01:08 124 0 gusting 4 6.7
2018-Feb-23 00:58 053 0 gusting 2 6.7
2018-Feb-23 00:48 052 7.2
2018-Feb-23 00:38 053 7.2
2018-Feb-23 00:28 053 7.2
2018-Feb-23 00:18 052 7.8
2018-Feb-23 00:08 057 1 gusting 6 7.2
2018-Feb-22 23:58 039 5 gusting 7 6.7
2018-Feb-22 23:48 046 2 gusting 6 6.7
2018-Feb-22 23:38 032 2 gusting 6 6.7
2018-Feb-22 23:28 022 5 gusting 6 6.7
2018-Feb-22 23:18 044 2 gusting 5 6.7
2018-Feb-22 23:08 063 2 gusting 5 6.7
2018-Feb-22 22:58 047 0 gusting 2 6.7
2018-Feb-22 22:48 044 0 gusting 4 6.7
2018-Feb-22 22:38 054 1 gusting 2 6.7
2018-Feb-22 22:28 054 6.7
2018-Feb-22 22:18 054 6.7
2018-Feb-22 22:08 054 0 gusting 1 7.2
2018-Feb-22 21:58 054 7.2
2018-Feb-22 21:48 054 0 gusting 2 7.2
2018-Feb-22 21:38 054 7.2
2018-Feb-22 21:28 054 0 gusting 1 7.2
2018-Feb-22 21:18 063 7.2
2018-Feb-22 21:08 063 7.8
2018-Feb-22 20:58 063 7.8
2018-Feb-22 20:48 063 8.3
2018-Feb-22 20:38 052 0 gusting 5 8.3
2018-Feb-22 20:28 068 0 gusting 1 8.3
2018-Feb-22 20:18 068 0 gusting 4 8.3
2018-Feb-22 20:08 038 8.3
2018-Feb-22 19:58 038 0 gusting 4 7.8
2018-Feb-22 19:48 038 0 gusting 4 7.8
2018-Feb-22 19:38 039 0 gusting 1 8.3
2018-Feb-22 19:28 039 8.3
2018-Feb-22 19:18 039 8.3
2018-Feb-22 19:08 039 8.3
2018-Feb-22 18:58 039 1 gusting 4 8.3
2018-Feb-22 18:48 042 1 gusting 5 8.3
2018-Feb-22 18:38 065 1 gusting 6 8.3
2018-Feb-22 18:28 042 3 gusting 6 8.3
2018-Feb-22 18:18 048 3 gusting 5 8.3
2018-Feb-22 18:08 065 0 gusting 4 8.9
2018-Feb-22 17:58 043 0 gusting 4 8.9
2018-Feb-22 17:48 054 1 gusting 2 8.9
2018-Feb-22 17:38 034 1 gusting 6 8.9
2018-Feb-22 15:08 121 2 gusting 7 9.4
2018-Feb-22 14:58 099 1 gusting 7 9.4
2018-Feb-22 14:48 062 1 gusting 7 9.4
2018-Feb-22 14:38 093 1 gusting 8 10.0
2018-Feb-22 14:28 110 1 gusting 6 10.0
2018-Feb-22 14:18 123 0 gusting 5 10.0
2018-Feb-22 14:08 068 0 gusting 6 9.4
2018-Feb-22 13:58 142 1 gusting 6 9.4
2018-Feb-22 13:48 088 1 gusting 6 9.4
2018-Feb-22 13:38 136 2 gusting 7 9.4
2018-Feb-22 13:28 123 3 gusting 7 9.4
2018-Feb-22 13:18 073 2 gusting 6 9.4
2018-Feb-22 13:08 082 3 gusting 11 9.4
2018-Feb-22 12:58 119 3 gusting 8 9.4
2018-Feb-22 12:48 115 1 gusting 6 10.0
2018-Feb-22 12:38 026 2 gusting 6 9.4
2018-Feb-22 12:28 129 2 gusting 8 9.4
2018-Feb-22 12:18 096 1 gusting 7 9.4
2018-Feb-22 12:08 057 1 gusting 6 9.4